National Weather Service Hourly Weather Roundup
NOAA NWS Hourly Roundups by Site
NOAA NWS Hourly Roundups by Site
Regional Weather Roundup for Sacramento, CA

To Select Another Site Choose from List

Select Site:  

000
ASUS46 KSTO 200315
RWRCA

NORTHERN AND CENTRAL CA REGIONAL WEATHER ROUNDUP
NATIONAL WEATHER SERVICE SACRAMENTO CA
700 PM PST TUE FEB 19 2019

NOTE: FAIR INDICATES FEW OR NO CLOUDS BELOW 12,000 FEET WITH NO
SIGNIFICANT WEATHER AND/OR OBSTRUCTIONS TO VISIBILITY.

CAZ001-003-200400-
NORTHWEST AREA

CITY           SKY/WX    TMP DP  RH WIND       PRES   REMARKS
CRESCENT CITY  CLOUDY    45  38  76 NW6       30.22F
UKIAH          CLOUDY    49  34  56 N6        30.12S
$$

CAZ006-505>513-200400-
BAY AREA

CITY           SKY/WX    TMP DP  RH WIND       PRES   REMARKS
SANTA ROSA     MOCLDY    48  37  65 SE3       30.11S
SAN RAFAEL     N/A      MM  MM  MM MISG
NAPA           PTCLDY    45  38  76 SW6       30.13F
CONCORD        CLEAR     51  31  46 S6        30.13F
OAKLAND CITY   N/A       53  MM  MM MISG
OAKLAND        MOCLDY    51  40  65 W8        30.15S
SAN FRAN CITY  N/A       50  MM  61 MISG
SAN FRAN ARPT  PTCLDY    50  37  61 W10       30.14S
LIVERMORE      CLEAR     45  34  65 W8        30.14R
HAYWARD        CLEAR     50  38  63 SW3       30.15S
REDWOOD CITY   N/A       49  MM  71 MISG
MOFFETT ARPT   CLEAR     50  35  56 W6        30.17R
SAN JOSE ARPT  MOCLDY    50  39  66 N9        30.16R
$$
CAZ034-037-514>518-200400-
CENTRAL COAST

CITY           SKY/WX    TMP DP  RH WIND       PRES   REMARKS
WATSONVILLE    CLEAR     46  38  73 N5        30.16R
SALINAS        PTCLDY    49  38  65 SW5       30.16R
MONTEREY       CLEAR     48  38  68 SW8       30.18R
SAN LUIS OBISP CLEAR     48  36  63 N5        30.16R
SANTA MARIA    CLEAR     46  38  73 W6        30.15R
$$
CAZ015-016-200400-
NORTHERN SACRAMENTO VALLEY

CITY           SKY/WX    TMP DP  RH WIND       PRES   REMARKS
REDDING        CLOUDY    48  31  51 SE8       30.04F
RED BLUFF      CLOUDY    49  32  52 S10       30.05F
OROVILLE       CLOUDY    49  33  54 SE9       30.11S
$$
CAZ016>018-200400-
SOUTHERN SACRAMENTO VALLEY

CITY           SKY/WX    TMP DP  RH WIND       PRES   REMARKS
AUBURN         CLEAR     43  25  49 SE7       30.10S
BEALE AFB      CLOUDY    46  31  55 SE7       30.10S
LINCOLN        FAIR      46  30  53 SE6       30.11S
MARYSVILLE     MOCLDY    47  33  58 SE3       30.12S
SAC INTL ARPT  MOCLDY    48  31  51 S8        30.11F
MATHER AIRPORT PTCLDY    43  32  65 SE9       30.12F
DOWNTOWN SAC   N/A       49  MM  MM MISG
SAC EXEC ARPT  MOCLDY    50  27  40 SE6       30.12F
VACAVILLE      MOCLDY    51  35  54 SW8       30.13F
TRAVIS AFB     PTCLDY    45  35  67 SW9       30.12F
$$
CAZ019>021-200400-
SAN JOAQUIN VALLEY

CITY           SKY/WX    TMP DP  RH WIND       PRES   REMARKS
STOCKTON       PTCLDY    47  30  51 E5        30.13S
MODESTO        PTCLDY    47  30  51 E3        30.14S
MERCED         CLEAR     45  33  63 CALM      30.16R
LEMOORE        PTCLDY    41  30  65 NW7       30.16S
FRESNO         PTCLDY    50  31  48 W3        30.16R
HANFORD        PTCLDY    45  35  68 CALM      30.17R
PORTERVILLE    CLEAR     45  35  68 CALM      30.16S
BAKERSFIELD    CLEAR     47  29  49 N6        30.15R
$$
CAZ011-012-071-200400-
NORTHERN MOUNTAINS

CITY           SKY/WX    TMP DP  RH WIND       PRES   REMARKS
YREKA          MOCLDY    35  25  66 N13       30.07S WCI  26
MOUNT SHASTA   CLOUDY    35  21  56 VRB7      30.01R WCI  29
ALTURAS        CLOUDY    25  17  72 NE3       29.98F
$$
CAZ011-012-071-200400-
SIERRA NEVADA MTNS

CITY           SKY/WX    TMP DP  RH WIND       PRES   REMARKS
BLUE CANYON    CLOUDY    28  23  81 CALM      30.03S
TRUCKEE        CLOUDY    23  21  93 CALM      30.00S
TAHOE VLY ARPT CLOUDY    24  21  88 CALM      29.97F
MAMMOTH LAKES  FAIR      24   5  42 W7        29.99R WCI  16
$$


 

View Past Reports for Sacramento, CA.

Products Courtesy of NOAA-NWS
NWS Information Parsing Script by Ken True at Saratoga Weather - Script by SE Lincoln Weather.

powered by Cumulus v1.9.3 (1059)
Ambient Weather VWS v14.00
Top Contact Website Map Copyright © 2007 - 2019 Foresthillweather.com Never base important decisions on this or any weather information obtained from the Internet